Land O' Lakes, WI

7:47 AM CDT on October 22, 2017 (GMT -0500)
Kings Land O'Lakes

Weather History for KLNL - September, 2013

Change the Weather History Date:

Thursday, September 26, 2013

  Actual Average (KEGV) Record (KEGV)
Temperature  
Mean Temperature 53 °F -  
Max Temperature 72 °F 66 °F 78 °F (2008)
Min Temperature 35 °F 38 °F 26 °F (2012)
Degree Days  
Heating Degree Days 12    
Growing Degree Days 3 (Base 50)    
Moisture  
Dew Point 46 °F    
Average Humidity 77    
Maximum Humidity 100    
Minimum Humidity 39    
Precipitation  
Precipitation 0.00 in - - ()
Sea Level Pressure  
Sea Level Pressure 30.07 in    
Wind  
Wind Speed 3 mph (SSE)    
Max Wind Speed 12 mph    
Max Gust Speed 18 mph    
Visibility 7 miles    
Events Fog    
Averages and records for this station are not official NWS values.
T = Trace of Precipitation, MM = Missing Value Source: NWS Daily Summary

Daily Weather History Graph

Daily Weather History Graph

Search for Another Location

Airport or City:

Trip Planner

Search our weather history database for the weather conditions in past years. The results will help you decide how hot, cold, wet, or windy it might be!

Date:

Astronomy

Sep. 26, 2013 Rise Set
Actual Time 6:49 AM CDT 6:46 PM CDT
Civil Twilight 6:19 AM CDT 7:15 PM CDT
Nautical Twilight 5:44 AM CDT 7:50 PM CDT
Astronomical Twilight 5:08 AM CDT 8:26 PM CDT
Moon 11:27 PM CDT (9/26) 1:58 PM CDT (9/26)
Length of Visible Light 12h 56m
Length of Day
11h 56m
Waning Gibbous, 54% of the Moon is Illuminated
Sep 26
Waning Gibbous
Sep 26
Last Quarter
Oct 4
New
Oct 11
First Quarter
Oct 18
Full

Hourly Weather History & Observations

Time (CDT) Temp. Dew Point Humidity Pressure Visibility Wind Dir Wind Speed Gust Speed Precip Events Conditions
12:15 AM 39.4 °F 39.4 °F 100% 30.04 in 1.0 mi Calm Calm - N/A   Mist
12:35 AM 38.5 °F 38.5 °F 100% 30.05 in 1.2 mi Calm Calm - N/A   Mist
12:55 AM 37.8 °F 37.8 °F 100% 30.05 in 1.8 mi Calm Calm - N/A   Mist
1:15 AM 37.2 °F 37.2 °F 100% 30.05 in 4.0 mi Calm Calm - N/A   Clear
1:35 AM 36.9 °F 36.9 °F 100% 30.06 in 4.0 mi Calm Calm - N/A   Clear
1:55 AM 37.9 °F 37.9 °F 100% 30.06 in 5.0 mi Calm Calm - N/A   Scattered Clouds
2:15 AM 37.0 °F 37.0 °F 100% 30.06 in 0.8 mi Calm Calm - N/A   Overcast
2:35 AM 36.5 °F 36.5 °F 100% 30.06 in 0.5 mi Calm Calm - N/A Fog Fog
2:55 AM 37.4 °F 37.4 °F 100% 30.06 in 0.5 mi Calm Calm - N/A Fog Fog
3:15 AM 36.0 °F 36.0 °F 100% 30.06 in 0.2 mi Calm Calm - N/A Fog Fog
3:35 AM 36.1 °F 36.1 °F 100% 30.07 in 0.2 mi Calm Calm - N/A Fog Fog
3:55 AM 35.6 °F 35.6 °F 100% 30.07 in 0.5 mi Calm Calm - N/A Fog Fog
4:15 AM 35.4 °F 35.4 °F 100% 30.07 in 0.2 mi Calm Calm - N/A Fog Fog
4:35 AM 38.1 °F 38.1 °F 100% 30.08 in 0.2 mi Calm Calm - N/A Fog Fog
4:55 AM 39.6 °F 39.6 °F 100% 30.09 in 0.2 mi Calm Calm - N/A Fog Fog
5:15 AM 40.6 °F 40.6 °F 100% 30.09 in 0.2 mi Calm Calm - N/A Fog Fog
5:35 AM 41.2 °F 41.2 °F 100% 30.09 in 0.2 mi Calm Calm - N/A Fog Fog
5:55 AM 42.1 °F 42.1 °F 100% 30.09 in 0.2 mi Calm Calm - N/A Fog Fog
6:15 AM 43.0 °F 43.0 °F 100% 30.08 in 0.2 mi Calm Calm - N/A Fog Fog
6:35 AM 45.0 °F 45.0 °F 100% 30.07 in 0.2 mi Calm Calm - N/A Fog Fog
6:55 AM 45.0 °F 45.0 °F 100% 30.08 in 0.2 mi Calm Calm - N/A Fog Fog
7:15 AM 42.8 °F 42.8 °F 100% 30.08 in 0.2 mi Calm Calm - N/A Fog Fog
7:35 AM 45.7 °F 45.7 °F 100% 30.08 in 1.2 mi Calm Calm - N/A   Scattered Clouds
7:55 AM 48.2 °F 48.2 °F 100% 30.08 in 10.0 mi South 3.5 mph - N/A   Clear
8:15 AM 49.1 °F 49.1 °F 100% 30.08 in 10.0 mi South 3.5 mph - N/A   Clear
8:35 AM 49.6 °F 49.6 °F 100% 30.09 in 10.0 mi South 3.5 mph - N/A   Clear
8:55 AM 50.0 °F 50.0 °F 100% 30.10 in 10.0 mi South 3.5 mph - N/A   Clear
9:15 AM 51.1 °F 51.1 °F 100% 30.10 in 10.0 mi SSE 8.1 mph - N/A   Clear
9:35 AM 52.3 °F 52.3 °F 100% 30.10 in 10.0 mi SSE 8.1 mph - N/A   Clear
9:55 AM 55.8 °F 55.8 °F 100% 30.10 in 10.0 mi South 4.6 mph - N/A   Clear
10:15 AM 59.2 °F 50.7 °F 74% 30.10 in 10.0 mi South 5.8 mph - N/A   Clear
10:35 AM 60.8 °F 49.8 °F 67% 30.09 in 10.0 mi South 9.2 mph - N/A   Clear
10:55 AM 61.3 °F 49.3 °F 65% 30.09 in 10.0 mi SSW 9.2 mph 18.4 mph N/A   Clear
11:15 AM 62.6 °F 49.1 °F 61% 30.09 in 10.0 mi SSW 11.5 mph 18.4 mph N/A   Clear
11:35 AM 63.7 °F 49.3 °F 59% 30.09 in 10.0 mi South 10.4 mph - N/A   Clear
11:55 AM 65.3 °F 50.0 °F 58% 30.09 in 10.0 mi SSE 8.1 mph - N/A   Clear
12:15 PM 66.7 °F 48.9 °F 53% 30.09 in 10.0 mi SSE 10.4 mph - N/A   Clear
12:35 PM 67.1 °F 47.3 °F 49% 30.09 in 10.0 mi South 9.2 mph - N/A   Clear
12:55 PM 67.8 °F 46.4 °F 46% 30.08 in 10.0 mi South 11.5 mph - N/A   Clear
1:15 PM 68.0 °F 46.0 °F 45% 30.07 in 10.0 mi SSE 11.5 mph - N/A   Clear
1:35 PM 69.3 °F 45.9 °F 43% 30.07 in 10.0 mi South 11.5 mph 17.3 mph N/A   Clear
1:55 PM 69.4 °F 45.9 °F 43% 30.06 in 10.0 mi South 9.2 mph - N/A   Clear
2:15 PM 70.5 °F 46.8 °F 43% 30.06 in 10.0 mi SSE 6.9 mph - N/A   Clear
2:35 PM 70.7 °F 47.5 °F 44% 30.06 in 10.0 mi South 6.9 mph - N/A   Clear
2:55 PM 71.4 °F 46.8 °F 41% 30.06 in 10.0 mi South 9.2 mph - N/A   Clear
3:15 PM 71.6 °F 47.8 °F 43% 30.06 in 10.0 mi South 8.1 mph - N/A   Clear
3:35 PM 71.6 °F 46.0 °F 40% 30.06 in 10.0 mi South 5.8 mph - N/A   Clear
3:55 PM 71.8 °F 46.9 °F 41% 30.05 in 10.0 mi South 8.1 mph - N/A   Clear
4:15 PM 71.4 °F 45.3 °F 39% 30.05 in 10.0 mi South 9.2 mph - N/A   Clear
4:35 PM 71.6 °F 45.7 °F 39% 30.05 in 10.0 mi South 8.1 mph - N/A   Clear
4:55 PM 70.7 °F 46.0 °F 41% 30.06 in 10.0 mi SSE 6.9 mph - N/A   Clear
5:15 PM 70.3 °F 46.2 °F 42% 30.06 in 10.0 mi SSE 8.1 mph - N/A   Clear
5:35 PM 69.4 °F 46.9 °F 45% 30.06 in 10.0 mi SSE 5.8 mph - N/A   Clear
5:55 PM 68.0 °F 47.3 °F 47% 30.06 in 10.0 mi SSE 4.6 mph - N/A   Clear
6:15 PM 66.4 °F 48.4 °F 52% 30.07 in 10.0 mi SSE 4.6 mph - N/A   Clear
6:35 PM 64.4 °F 48.7 °F 57% 30.07 in 10.0 mi SSE 4.6 mph - N/A   Clear
6:55 PM 62.1 °F 49.5 °F 63% 30.07 in 10.0 mi SSE 3.5 mph - N/A   Clear
7:15 PM 59.5 °F 49.6 °F 70% 30.06 in 10.0 mi SE 4.6 mph - N/A   Clear
7:35 PM 58.8 °F 50.5 °F 74% 30.07 in 10.0 mi SE 3.5 mph - N/A   Clear
7:55 PM 58.1 °F 50.9 °F 77% 30.07 in 10.0 mi SE 4.6 mph - N/A   Clear
8:15 PM 57.9 °F 51.1 °F 78% 30.07 in 10.0 mi SE 4.6 mph - N/A   Clear
8:35 PM 57.7 °F 51.3 °F 79% 30.07 in 10.0 mi SSE 4.6 mph - N/A   Clear
8:55 PM 57.7 °F 51.3 °F 79% 30.07 in 10.0 mi SSE 4.6 mph - N/A   Clear
9:15 PM 57.4 °F 51.6 °F 81% 30.07 in 10.0 mi SSE 5.8 mph - N/A   Clear
9:35 PM 57.4 °F 51.8 °F 82% 30.08 in 10.0 mi SSE 4.6 mph - N/A   Clear
9:55 PM 57.2 °F 52.0 °F 83% 30.08 in 10.0 mi SSE 6.9 mph - N/A   Clear
10:15 PM 56.8 °F 52.0 °F 84% 30.08 in 10.0 mi SSE 6.9 mph - N/A   Clear
10:35 PM 56.7 °F 51.8 °F 84% 30.09 in 10.0 mi SSE 5.8 mph - N/A   Clear
10:55 PM 56.3 °F 51.8 °F 85% 30.09 in 10.0 mi South 6.9 mph - N/A   Clear
11:15 PM 55.8 °F 51.8 °F 87% 30.09 in 10.0 mi South 5.8 mph - N/A   Clear
11:35 PM 55.4 °F 51.6 °F 87% 30.10 in 10.0 mi South 5.8 mph - N/A   Clear
11:55 PM 54.9 °F 51.4 °F 88% 30.10 in 10.0 mi South 6.9 mph - N/A   Clear